Weather Roundup
Issued by NWS Springfield, MO

Home | Current Version | Previous Version | Text Only | Print | Product List | Glossary On
Versions: 1 2 3 4 5 6 7 8 9 10 11 12 13 14 15 16 17 18 19 20 21 22 23 24 25 26 27 28 29 30 31 32 33 34 35 36 37 38 39 40 41 42 43 44 45 46 47 48 49 50
000
NZUS99 KSGF 151307
HRRSGF

HOURLY WEATHER
NATIONAL WEATHER SERVICE SPRINGFIELD MO
700 AM CST FRI DEC 15 2017

......SGF CWA......

CITY           SKY/WX    TMP DP  RH WIND       PRES   REMARKS
SPRINGFIELD    CLOUDY    35  27  72 W7        30.13R WCI  29
JOPLIN         CLEAR     31  30  96 CALM      30.18R
WEST PLAINS    CLOUDY    31  24  75 W6        30.14R WCI  25
ROLLA          CLOUDY    29  24  82 SW7       30.11R WCI  22
BRANSON        PTCLDY    32  25  74 CALM      30.15R

......SURROUNDING SGF CWA......

CITY           SKY/WX    TMP DP  RH WIND       PRES   REMARKS
CHANUTE        CLEAR     31  29  92 W7        30.20R WCI  24
PARSONS        MOCLDY    30  29  96 NW5       30.22R WCI  25
COFFEYVILLE    CLEAR     32  30  92 NW6       30.22R WCI  26
EMPORIA        CLEAR     27  24  89 W5        30.19R WCI  22
GROVE OK       PTCLDY    37  34  87 NW5       30.20S WCI  34
ROGERS AR      PTCLDY    30  26  85 W5        30.18R WCI  25
SILOAM SPRINGS MOCLDY    30  27  88 CALM      30.20R
HARRISON AR    CLEAR     34  25  69 W9        30.14R WCI  27
NEAR YELLVILLE CLEAR     28  24  85 CALM      30.18R

......KANSAS AND MISSOURI......

CITY           SKY/WX    TMP DP  RH WIND       PRES   REMARKS
KANSAS CTY INT MOCLDY    31  26  82 W5        30.13S WCI  26
DOWNTOWN KC    CLEAR     34  27  75 W6        30.15R WCI  29
COLUMBIA       CLOUDY    33  25  72 W7        30.10S WCI  27
SEDALIA        CLOUDY    35  30  82 W9        30.14R WCI  28
ST JOSEPH        N/A     24  19  81 W6        30.13F WCI  17
ST LOUIS       MOCLDY    32  23  69 SW8       30.10S WCI  25
SPIRIT OF STL  CLOUDY    32  23  69 SW9       30.11R WCI  24
KIRKSVILLE     CLOUDY    31  27  85 W6        30.08R WCI  25
WICHITA        PTCLDY    28  24  85 W7        30.22S WCI  21
TOPEKA         CLOUDY    33  30  88 W8        30.17S WCI  26
OLATHE         CLEAR     32  29  88 NW6       30.14S WCI  26

......TENNESSEE......

CITY           SKY/WX    TMP DP  RH WIND       PRES   REMARKS
MEMPHIS        CLOUDY    29  26  89 W3        30.21R
NASHVILLE      CLOUDY    33  20  58 NW7       30.13R WCI  27

......ARKANSAS.......

CITY           SKY/WX    TMP DP  RH WIND       PRES   REMARKS
FAYETTEVILLE   CLOUDY    31  28  89 S3        30.19R
FT SMITH       PTCLDY    29  26  89 CALM      30.23R
LITTLE ROCK    PTCLDY    29  25  85 SW6       30.23R WCI  23

......OKLAHOMA.......

CITY           SKY/WX    TMP DP  RH WIND       PRES   REMARKS
TULSA          CLEAR     34  32  92 W8        30.25R WCI  27
PONCA CITY     PTCLDY    28  24  85 CALM      30.25R
MCALESTER      PTCLDY    32  29  88 CALM      30.25R
OKLAHOMA CITY  PTCLDY    29  24  82 NW7       30.28R WCI  22

......IOWA............

CITY           SKY/WX    TMP DP  RH WIND       PRES   REMARKS
DES MOINES     CLOUDY    30  22  72 W8        30.02F WCI  22
QUAD CITIES    CLOUDY    28  19  69 W12       30.01R WCI  18

......ILLINOIS........

CITY           SKY/WX    TMP DP  RH WIND       PRES   REMARKS
QUINCY         CLOUDY    31  24  75 NW8       30.06R WCI  23
CHICAGO        FLURRIES  25  17  72 W8G18     29.91S WCI  16




USA.gov is the U.S. government's official web portal to all federal, state and local government web resources and services.